Погода Вышний Волочек

Хотите узнать прогноз погоды Вышний Волочек? Тогда Вам сюда: Погода Вышний Волочек

Поиск расширенной информации на нашем сайте:

Полезная информация:

Новости сайта



02.01.2020
Опубликован Долгосрочный прогноз погоды по городам России и ближнего зарубежья на январь 2020 года.
Карты: Прогноз на январь и февраль 2020 года, Сравнение прогнозируемой аномалии приземной температуры воздуха на январь 2020 года по разным моделям.




Погода Вышний Волочек - сегодня

Время (UTC), дата Ветер
(°,м/с) 
Видим.   Явления Облачность Т
(°С)
Тd
(°С)
f(%) Тe
(°С)
Pmin
(гПа)
dP
(гПа)
Po
(мм)
O2
(г/м3)
Тmin Tmax R s Состояние
почвы
18 29.11.20 110 (В) 10 км  слаб. ливневой снег  10/10 600 м кучево-дожд. 
[Cb cap]
+0.5 +0.4 99 1026.4  -0.6  754  303    +0.5     
21 29.11.20 100 (В) 10 км  слаб. ливневой дождь  10/10 600 м кучево-дожд. 
[Cb cap]
+0.8 +0.8 100 1026.1  -0.2  754  303           
00 30.11.20 110 (В) 10 км  {ливн. осадки}  10/10 600 м кучево-дожд. 
[Cb cap]
+1.6 +1.6 100 1025.9  -0.2  753  302           
03 30.11.20 110 (В) 10 км    10/10 600 м кучево-дожд. 
[Cb cap]
+2 +2 100 +1  1025.5  -0.3  753  301  +0.2       
06 30.11.20 120 (ЮВ) 10 км  слаб. ливневой дождь  10/10 600 м кучево-дожд. 
[Cb cap]
+2.2 +2.2 100 +2  1025.2  -0.3  753  301  +0.2    равномерный
мокрый или
старый снег
100% 
09 30.11.20 120 (ЮВ) 10 км  слаб. ливневой дождь  10/10 600 м кучево-дожд. 
[Cb cap]
+1.3 +1.1 99 1024.9  -0.4  753  302           
12 30.11.20 130 (ЮВ) 10 км  слаб. ливневой снег  10/10 600 м кучево-дожд. 
[Cb cap]
+0.7 +0.6 99 1024.3  -0.6  752  302           
15 30.11.20 150 (ЮВ) 10 км  в посл. час ливневой снег  9/9 600 м кучево-дожд. 
[Cb cap]
+0.5 +0.5 100 1024.6  0.2  752  303         
18 30.11.20 180 (Ю) 10 км  {ливн. осадки}  9/9 600 м 
[Sc]
+0 -0.5 96 -1  1025.3  0.7  753  303    +2.2     
21 30.11.20 170 (Ю) 10 км    9/0 средняя 
[Ac trans]
-1 -1.5 96 1026.2  0.8  754  305           
00 01.12.20 150 (ЮВ) 10 км    9/9 600 м 
[Sc]
-1 -2 93 -2  1026.1  -0.1  753  305           
03 01.12.20 170 (Ю) 10 км    9/9 600 м 
[Sc]
-1 -2.1 92 -2  1026.7  0.6  754  305  -1.1         
06 01.12.20 170 (Ю) 10 км    9/9 600 м 
[Sc]
-1.2 -2.2 93 -2  1027.8  755  306  -1.2      равномерный
мокрый или
старый снег
100% 
09 01.12.20 170 (Ю) 20000 м    4/4 600 м 
[Sc]
-0.9 -2.1 92 1029.2  1.5  756  306           
12 01.12.20 180 (Ю) 20000 м    9/9 600 м 
[Sc]
-0.3 -2.2 87 -1  1030.1  0.9  756  305           
15 01.12.20 170 (Ю) 10 км    9/9 600 м 
[Sc]
-0.9 -2.5 89 1031.5  1.4  758  307           
21 01.12.20 170 (Ю) 10 км    9/9 600 м 
[Sc]
-1.6 -4.4 81 -1  1033.8  759  308           
00 02.12.20 170 (Ю) 10 км    9/8 600 м средняя 
[Sc|Ac trans]
-2.3 -3.6 91 -2  1034.9  760  309           
03 02.12.20 160 (Ю) 10 км    9/9 600 м 
[Sc]
-4.3 -4.5 99 -4  1035.3  0.3  760  312  -4.3         
06 02.12.20 170 (Ю) 10 км    9/9 600 м 
[Sc]
-4.9 -5 99 -6  1036.2  0.8  761  313  -4.9      мокрый или
старый снег
50-90% 
09 02.12.20 150 (ЮВ) 4000 м  дымка  10/10 300 м 
[St]
-5.1 -5.2 99 -5  1036.6  0.3  761  313           
12 02.12.20 170 (Ю) 10 км    9/9 600 м 
[Sc]
-4.8 -5 99 -4  1036  -0.5  761  312           
15 02.12.20 090 (В) 10 км    9/9 600 м 
[Sc]
-4.3 -4.5 99 -4  1035.1  -0.8  760  312           
18 02.12.20 070 (В) 10 км    9/9 600 м 
[Sc]
-3.1 -3.4 98 -3  1034.1  -0.9  759  310    -3.1       
21 02.12.20 150 (ЮВ) 10 км    9/9 600 м 
[Sc]
-2.4 -3.3 94 -4  1033.1  -0.9  759  309           
Время (UTC), дата Ветер
(°,м/с) 
Видим.   Явления Облачность Т
(°С)
Тd
(°С)
f(%) Тe
(°С)
Pmin
(гПа)
dP
(гПа)
Po
(мм)
O2
(г/м3)
Тmin Tmax R s Состояние
почвы

Для получения пояснительной информации подведите курсор к названию столбца.

ПОГОДА Вышний Волочек - архив

Всё, что Вы хотите узнать о погоде Вышний Волочек - удобно и подробно!

Выберите нужную дату (начиная с 1 января 2019* года) и нажмите кнопку "Найти".
Будут отображены архивные сводки погоды по пункту Вышний Волочек, начиная с указанной даты.


Отображать данные в формате CSV (для использования в таблицах Excel)


Внимание! Наш архив погоды предназначен исключительно для личного некоммерческого использования в познавательных целях. Если Вам необходимы официальные справки о состоянии погоды (для производственных, юридических, коммерческих и т.п. целей), обращайтесь в органы Росгидромета.

*Примечание: данная дата относится к архиву по метеостанциям СССР (Россия, СНГ, Балтия).
Архив по метеостанциям Зарубежной Европы и Азии (кроме Китая) хранится 10 дней, по другим регионам земного шара (Китай, Африка, Америка, Австралия, Океания) - 1 день.

Вышний Волочек - район местоположения метеостанции


Название, широта, долгота, высота метеостанции:
Вышний Волочек 57.6°ш. 34.6°д. 169 м над ур. моря [Российская Федерация]

Дополнительная информация

В oтличие oт бoльшинства пoгoдных сайтoв мы публикуем пoдрoбную метеoинфoрмацию в детальнoм прoфессиoнальнoм фoрмате.

Характеристики температуры и влажнoсти вoздуха измеряются на высoте 2 м в тени вдали oт зданий и деревьев.
Скoрoсть ветра измеряется на высoте 10 м (на урoвне рoста челoвека скoрoсть ветра ниже в 1.5-2 раза). Если метеoстанция нахoдится в гoрoде или в лесу, тo скoрoсть ветра занижена на 2-4 м/с пo сравнению с oткрытым местoм. Скoрoсть ветра над акватoриями крупных рек и oзёр, а также на вершинах хoлмoв на 2-5 м/с выше, чем в oбычных услoвиях.
Атмoсфернoе давление в разных тoчках местнoсти мoжет значительнo oтличаться oт давления на метеoстанции, в зависимoсти oт услoвий рельефа (при пoдъёме на 10 м давление пoнижается примернo на 1 мм рт.ст.).